Terug naar catalogus

STARLINK-4215

ActiefCommunicatieVLEO
NORAD 53007·PAYLOAD·🇺🇸 United States

Gelanceerd Jul 7, 2022 vanaf Cape Canaveral Space Force Station

Loading…

Volgende Passages (komende 24 uur)

TLE

VersSource: CelesTrak SupGP

Epoch: Sep 15, 2026, 01:31 UTC

1 53007C 22076X   26258.06368056  .00046122  00000+0  13200-2 0  2589
2 53007  53.1581 309.8601 0001213  90.0195 166.7697 15.35365897    13

Volg STARLINK-4215 in realtime met AllMySat

Download on the App Store